Flag for Brazil Weather past 2 weeks in Salvador, Bahia, Brazil

Now
81 °F

Broken clouds.


Feels Like: 83 °F
Forecast: 75 / 78 °F
Wind: 18 mph from South

Location: Salvador Aeroporto

Current Time: Jul 29, 2014 at 2:44:09 PM

Latest Report: Jul 29, 2014 at 2:00 PM


Visibility: N/A

Pressure: 30.09 "Hg

Humidity: 66%

Dew point: 68 °F

Location of SalvadorLocation

Historic Weather in Salvador — Graph

°F

Salvador temperature yesterday

Maximum temperature yesterday: 81 °F (at 9:00 AM)
Minimum temperature yesterday: 73 °F (at 3:00 AM)
Average temperature yesterday: 77 °F

Past Weeks' High & Low Weather Summary

 TemperatureHumidityPressure
High82 °F (Jul 16, 12:00 PM)100% (Jul 15, 2:00 PM)30.21 "Hg (Jul 15, 2:00 PM)
Low41 °F (Jul 15, 2:00 PM)62% (Jul 14, 2:00 PM)30.01 "Hg (Jul 25, 3:00 AM)
Average77 °F81%30.10 "Hg
* Reported Jul 14 1:00 PM — Jul 29 1:00 PM, Salvador, Weather by CustomWeather, © 2014

Note: Actual official high and low records may vary slightly from our data, if they occured in-between our weather recording intervals... More about our weather records

Advertising

Salvador weather history for previous 24 hours

 ConditionsComfort  
Time TempWeatherWind HumidityBarometerVisibility
1:00 PM
Jul 29
81 °FPartly sunny.15 mph70%30.12 "HgN/A
12:00 PM82 °FScattered clouds.14 mph66%30.15 "HgN/A
11:00 AM81 °FScattered clouds.16 mph66%30.15 "HgN/A
10:00 AM81 °FScattered clouds.13 mph66%30.18 "HgN/A
9:00 AM81 °FScattered clouds.13 mph66%30.18 "HgN/A
8:00 AM79 °FScattered clouds.10 mph70%30.15 "HgN/A
7:00 AM77 °FScattered clouds.12 mph74%30.15 "HgN/A
6:00 AM75 °FScattered clouds.10 mph78%30.12 "HgN/A
5:00 AM75 °FPassing clouds.13 mph78%30.12 "HgN/A
4:00 AM75 °FPassing clouds.12 mph78%30.12 "HgN/A
3:00 AM77 °FPassing clouds.9 mph74%30.12 "HgN/A
2:00 AM77 °FPassing clouds.14 mph74%30.12 "HgN/A
1:00 AM77 °FPassing clouds.10 mph74%30.15 "HgN/A
12:00 AM77 °FPassing clouds.10 mph74%30.18 "HgN/A
11:00 PM
Jul 28
77 °FPassing clouds.10 mph74%30.18 "HgN/A
10:00 PM77 °FPassing clouds.9 mph74%30.18 "HgN/A
9:00 PM77 °FPassing clouds.8 mph74%30.18 "HgN/A
8:00 PM77 °FPassing clouds.7 mph79%30.15 "HgN/A
7:00 PM77 °FPassing clouds.9 mph79%30.15 "HgN/A
6:00 PM79 °FPartly cloudy.8 mph74%30.12 "HgN/A
5:00 PM79 °FPartly sunny.8 mph74%30.12 "HgN/A
4:00 PM77 °FPartly sunny.12 mph83%30.09 "HgN/A
3:00 PM77 °FPartly sunny.17 mph79%30.09 "Hg6 mi
2:00 PM75 °FLight rain. Partly sunny.9 mph89%N/A4 mi
Weather by CustomWeather, © 2014

See weather overviewHow to use our weather pages